Track LEMUR 2 GUSTAVO now! 10-day predictions LEMUR 2 GUSTAVO is classified as:
1 43885U 18111K 24326.02593483 .00064668 00000-0 18236-2 0 9993 2 43885 97.6172 241.5292 0012340 120.2743 239.9723 15.36103241321700